Flag for Canada Weather past 2 weeks in Richmond, British Columbia, Canada

Now
48 °F

Cloudy.


Feels Like: 45 °F
Forecast: 35 / 48 °F
Wind: 8 mph from West

Location: Vancouver International Air-Port

Current Time: Mar 5, 2015 at 3:19:29 PM

Latest Report: Mar 5, 2015 at 2:00 PM


Visibility: 30 mi

Pressure: 30.38 "Hg

Humidity: 66%

Dew point: 37 °F

Location of RichmondLocation

Historic Weather in Richmond — Graph

°F

Richmond temperature yesterday

Maximum temperature yesterday: 46 °F (at 12:00 PM)
Minimum temperature yesterday: 28 °F (at 5:00 AM)
Average temperature yesterday: 39 °F

Past Weeks' High & Low Weather Summary

 TemperatureHumidityPressure
High54 °F (Feb 18, 2:00 PM)100% (Feb 19, 5:00 AM)30.50 "Hg (Feb 19, 5:00 AM)
Low28 °F (Mar 4, 5:00 AM)29% (Mar 3, 3:00 PM)29.78 "Hg (Feb 27, 7:00 AM)
Average43 °F80%30.25 "Hg
* Reported Feb 18 2:00 PM — Mar 5 2:00 PM, Richmond, Weather by CustomWeather, © 2015

Note: Actual official high and low records may vary slightly from our data, if they occured in-between our weather recording intervals... More about our weather records

Advertising

Richmond weather history for previous 24 hours

 ConditionsComfort  
Time TempWeatherWind HumidityBarometerVisibility
2:00 PM
Thu, Mar 5
48 °FCloudy.8 mph66%30.38 "Hg30 mi
1:00 PM50 °FMore clouds than sun.5 mph54%30.39 "Hg30 mi
12:00 PM48 °FMore clouds than sun.3 mph58%30.39 "Hg30 mi
11:00 AM46 °FMore clouds than sun.8 mph57%30.40 "Hg30 mi
10:00 AM46 °FMore clouds than sun.6 mph53%30.38 "Hg30 mi
9:00 AM43 °FMore clouds than sun.5 mph61%30.38 "Hg30 mi
8:00 AM39 °FMore clouds than sun.3 mph70%30.37 "Hg30 mi
7:00 AM37 °FCloudy.3 mph70%30.34 "Hg30 mi
6:00 AM36 °FPassing clouds.No wind75%30.34 "Hg30 mi
5:00 AM34 °FOvercast.2 mph87%30.33 "Hg30 mi
4:00 AM36 °FOvercast.No wind75%30.32 "Hg30 mi
3:00 AM36 °FOvercast.No wind75%30.32 "Hg30 mi
2:00 AM37 °FOvercast.5 mph70%30.33 "Hg30 mi
1:00 AM37 °FPassing clouds.5 mph70%30.32 "Hg30 mi
12:00 AM39 °FPassing clouds.2 mph65%30.32 "Hg30 mi
11:00 PM
Wed, Mar 4
39 °FPassing clouds.5 mph65%30.32 "Hg30 mi
10:00 PM39 °FPassing clouds.5 mph65%30.32 "Hg30 mi
9:00 PM41 °FPassing clouds.3 mph57%30.30 "Hg30 mi
8:00 PM41 °FPassing clouds.5 mph61%30.30 "Hg30 mi
7:00 PM41 °FMostly cloudy.2 mph66%30.30 "Hg30 mi
6:00 PM41 °FMostly cloudy.3 mph76%30.29 "Hg30 mi
5:00 PM45 °FMostly cloudy.3 mph61%30.29 "Hg30 mi
4:00 PM46 °FOvercast.5 mph50%30.29 "Hg30 mi
Weather by CustomWeather, © 2015

See weather overviewHow to use our weather pages